Location: Peebles
(55.6412°N, 3.1714°W)
Time: 13:50:51
(UTC+01:00)

FENGYUN 1C DEB - Pass Details

Date: 12 July 2022
Orbit: 733 x 848 km, 99.0° (Epoch: 16 August)

Event Time Altitude Azimuth Distance (km) Brightness Sun altitude
Rises 03:31:37 0° 111° (ESE) 3,195 ? -7.4°
Reaches altitude 10° 03:34:29 10° 94° (E) 2,261 ? -7.2°
Maximum altitude 03:37:55 19° 50° (NE) 1,710 ? -6.9°
Drops below altitude 10° 03:41:19 10° 6° (N) 2,251 ? -6.6°
Sets 03:44:10 0° 349° (N) 3,176 ? -6.4°
